FW4331 Weather Reports


time (UTC)temp
C
wind
direction
speed
KPH
gust
KPH
rain 1hr
cm
rain 24hr
cm
rain mn
cm
humidity
%
barometer
mb
20260902044511 25 246 0.0 1.6 0.00 0.00 0.00 60 1014.6
20260902043007 25 262 0.0 0.0 0.00 0.00 0.00 59 1014.6
20260902041605 25 262 0.0 0.0 0.00 0.00 0.00 58 1014.8
20260902034605 25 262 0.0 0.0 0.00 0.00 0.00 61 1014.4
20260902033104 25 262 0.0 0.0 0.00 0.00 0.00 62 1014.2
20260902031554 25 262 0.0 0.0 0.00 0.00 0.00 62 1014.0
20260902030051 26 261 0.0 0.0 0.00 0.00 0.00 61 1013.7
20260902024549 26 352 0.0 1.6 0.00 0.00 0.00 61 1014.0
20260902023050 27 352 0.0 1.6 0.00 0.00 0.00 59 1014.2
20260902021545 27 352 0.0 1.6 0.00 0.00 0.00 57 1014.1
20260902020053 27 352 0.0 0.0 0.00 0.00 0.00 57 1013.9
20260902014541 28 352 0.0 1.6 0.00 0.00 0.00 57 1013.9
20260902013041 28 358 0.0 6.4 0.00 0.00 0.00 57 1013.6
20260902011538 27 355 0.0 3.2 0.00 0.00 0.00 58 1013.4
20260902010036 28 240 0.0 0.0 0.00 0.00 0.00 59 1013.1
20260902004533 28 240 0.0 0.0 0.00 0.00 0.00 59 1013.1
20260902003033 29 240 0.0 6.4 0.00 0.00 0.00 57 1012.7
20260902001543 28 271 0.0 0.0 0.00 0.00 0.00 57 1012.5
20260902000037 29 271 0.0 1.6 0.00 0.00 0.00 55 1012.2
20260901234523 30 311 0.0 4.8 0.00 0.00 0.00 55 1012.2
20260901233022 30 328 0.0 1.6 0.00 0.00 0.00 54 1012.5
20260901231522 31 328 0.0 3.2 0.00 0.00 0.00 53 1012.5
20260901230021 31 255 0.0 3.2 0.00 0.00 0.00 52 1012.5
20260901224526 31 259 0.0 4.8 0.00 0.00 0.00 51 1012.5
20260901223019 32 245 3.2 9.7 0.00 0.00 0.00 48 1012.5
20260901221517 33 255 4.8 9.7 0.00 0.00 0.00 47 1012.6
20260901220026 32 226 1.6 4.8 0.00 0.00 0.00 48 1012.7
20260901214517 32 284 0.0 8.0 0.00 0.00 0.00 49 1012.8
20260901213016 32 276 1.6 4.8 0.00 0.00 0.00 47 1012.9
20260901211528 33 297 1.6 6.4 0.00 0.00 0.00 45 1012.7
20260901210015 34 234 3.2 14.5 0.00 0.00 0.00 42 1012.7
20260901204521 34 224 4.8 11.3 0.00 0.00 0.00 42 1012.9
20260901203018 35 248 8.0 16.1 0.00 0.00 0.00 38 1013.0
20260901201510 35 295 1.6 11.3 0.00 0.00 0.00 40 1013.0
20260901200010 34 263 3.2 11.3 0.00 0.00 0.00 40 1013.2
20260901194508 34 318 3.2 8.0 0.00 0.00 0.00 44 1013.4
20260901193007 33 269 1.6 9.7 0.00 0.00 0.00 43 1013.4
20260901191503 33 262 6.4 11.3 0.00 0.00 0.00 44 1013.8
20260901184603 34 349 1.6 8.0 0.00 0.00 0.00 42 1014.4
20260901183059 35 283 4.8 8.0 0.00 0.00 0.00 40 1014.3
20260901181601 34 341 1.6 9.7 0.00 0.00 0.00 41 1014.2
20260901180056 34 295 3.2 12.9 0.00 0.00 0.00 41 1014.3
20260901174555 34 62 3.2 16.1 0.00 0.00 0.00 40 1014.3
20260901173053 34 277 3.2 12.9 0.00 0.00 0.00 40 1014.1
20260901171554 34 333 3.2 11.3 0.00 0.00 0.00 43 1014.3
20260901170110 33 268 4.8 12.9 0.00 0.00 0.00 41 1014.4
20260901164550 33 333 4.8 14.5 0.00 0.00 0.00 44 1014.7
20260901163045 33 257 3.2 14.5 0.00 0.00 0.00 45 1014.7
20260901161542 33 321 3.2 8.0 0.00 0.00 0.00 46 1014.8
20260901160046 32 244 3.2 9.7 0.00 0.00 0.00 47 1015.0
20260901154537 32 2 1.6 9.7 0.00 0.00 0.00 48 1015.1
20260901153034 31 286 1.6 8.0 0.00 0.00 0.00 48 1015.3
20260901151532 31 312 4.8 9.7 0.00 0.00 0.00 49 1015.4
20260901150051 31 277 4.8 9.7 0.00 0.00 0.00 48 1015.7
20260901144528 31 285 3.2 8.0 0.00 0.00 0.00 47 1015.5
20260901143027 31 278 0.0 4.8 0.00 0.00 0.00 46 1015.6
20260901141552 30 246 0.0 6.4 0.00 0.00 0.00 45 1015.6
20260901140018 30 252 3.2 6.4 0.00 0.00 0.00 44 1015.4
20260901134511 28 262 1.6 4.8 0.00 0.00 0.00 47 1015.5
20260901133010 28 163 0.0 3.2 0.00 0.00 0.00 48 1015.6
20260901131502 27 160 0.0 0.0 0.00 0.00 0.00 49 1015.7
20260901130056 26 219 0.0 1.6 0.00 0.00 0.00 50 1015.9
20260901124604 26 205 1.6 6.4 0.00 0.00 0.00 50 1015.8
20260901123050 25 221 0.0 0.0 0.00 0.00 0.00 49 1015.8
20260901121600 23 233 0.0 0.0 0.00 0.00 0.00 42 1015.8
20260901120144 22 233 0.0 0.0 0.00 0.00 0.00 41 1015.8
20260901114543 22 233 0.0 0.0 0.00 0.00 0.00 41 1015.6
20260901113050 22 233 0.0 0.0 0.00 0.00 0.00 43 1015.4
20260901111537 -17 0.0 0.0 0.00 0.00 0.00 1015.2
20260901110036 -17 0.0 0.0 0.00 0.00 0.00 1015.3
20260901104538 -17 0.0 0.0 0.00 0.00 0.00 1015.3
20260901103032 -17 0.0 0.0 0.00 0.00 0.00 1015.2
20260901101529 -17 0.0 0.0 0.00 0.00 0.00 1015.1
20260901100027 -17 0.0 0.0 0.00 0.00 0.00 1015.1
20260901094530 -17 50 0.0 0.0 0.00 0.00 0.00 1015.0
20260901093019 22 55 0.0 0.0 0.00 0.00 0.00 42 1015.1
20260901091516 23 55 0.0 0.0 0.00 0.00 0.00 43 1015.2
20260901090014 23 55 0.0 0.0 0.00 0.00 0.00 42 1015.3
20260901084512 23 55 0.0 3.2 0.00 0.00 0.00 41 1015.4
20260901083010 23 66 0.0 0.0 0.00 0.00 0.00 41 1015.4
20260901081508 23 51 0.0 4.8 0.00 0.00 0.00 43 1015.4
20260901080005 23 88 0.0 0.0 0.00 0.00 0.00 45 1015.3
20260901074502 23 80 0.0 0.0 0.00 0.00 0.00 46 1015.4
20260901073100 23 80 0.0 0.0 0.00 0.00 0.00 46 1015.5
20260901071558 22 51 0.0 0.0 0.00 0.00 0.00 44 1015.7
20260901070057 23 51 0.0 0.0 0.00 0.00 0.00 42 1015.7
20260901064551 23 9 0.0 0.0 0.00 0.00 0.00 44 1015.8
20260901063106 23 6 0.0 0.0 0.00 0.00 0.00 43 1016.1
20260901061548 23 333 0.0 0.0 0.00 0.00 0.00 43 1016.0
20260901060044 23 333 0.0 0.0 0.00 0.00 0.00 43 1015.9
20260901054540 23 29 0.0 0.0 0.00 0.00 0.00 43 1016.1
20260901053050 23 72 0.0 0.0 0.00 0.00 0.00 42 1016.3
20260901051538 24 71 0.0 3.2 0.00 0.00 0.00 41 1016.2
20260901050033 23 88 0.0 0.0 0.00 0.00 0.00 44 1016.3